Regional Weather Roundup
Issued by NWS

Home | Current Version | Previous Version | Graphics & Text | Print | Product List | Glossary On
Versions: 1 2 3 4 5 6 7 8 9 10 11 12 13 14 15 16 17 18 19 20 21 22 23 24 25 26 27 28 29 30 31 32 33 34 35 36 37 38 39 40 41 42 43 44 45 46 47 48 49 50
000
ASUS43 KBIS 251931
RWRND
NORTH DAKOTA REGIONAL WEATHER ROUNDUP
NATIONAL WEATHER SERVICE EASTERN NORTH DAKOTA/GRAND FORKS ND
200 PM CDT THU MAY 25 2017

  NOTE: "FAIR" INDICATES FEW OR NO CLOUDS BELOW 12,000 FEET WITH NO
  SIGNIFICANT WEATHER AND/OR OBSTRUCTIONS TO VISIBILITY.

NDZ001>003-009>011-017-252000-
...NORTHWEST NORTH DAKOTA...

CITY           SKY/WX    TMP DP  RH WIND       PRES   REMARKS
WILLISTON      CLOUDY    60  46  59 SW17      29.37R
MINOT          FAIR      70  37  29 SW18G28   29.37R
MINOT AFB      FAIR      68  41  36 SW20G29   29.36R
$$

NDZ018>021-031>035-040>046-252000-
...SOUTHWEST NORTH DAKOTA...

CITY           SKY/WX    TMP DP  RH WIND       PRES   REMARKS
BISMARCK       FAIR      74  34  23 W10G20    29.43S
DICKINSON      FAIR      65  37  35 W31G41    29.43R
GARRISON         N/A     68  39  34 W25G37    29.39S
HETTINGER      FAIR      68  35  29 W18G29    29.49R
$$

NDZ004>008-012>016-024-026-027-054-252000-
...NORTHEAST NORTH DAKOTA...

CITY           SKY/WX    TMP DP  RH WIND       PRES   REMARKS
GRAND FORKS    CLOUDY    69  47  45 S28G36    29.48F
GRAND FORKS AF CLOUDY    66  47  50 S23G31    29.48R
DEVILS LAKE    CLOUDY    62  48  60 S13       29.45S
$$

NDZ022-023-025-028>030-036>039-047>053-252000-
...SOUTHEAST NORTH DAKOTA...

CITY           SKY/WX    TMP DP  RH WIND       PRES   REMARKS
JAMESTOWN      CLOUDY    65  48  54 S14       29.43F
FARGO          CLOUDY    68  47  46 S22G30    29.50S
WAHPETON       CLOUDY    64  45  48 SE22G30   29.52S
$$




USA.gov is the U.S. government's official web portal to all federal, state and local government web resources and services.